Zurück zum Katalog

FENGYUN 1C DEB

AktivSSO
NORAD 29843·DEBRIS·🇨🇳 China

Gestartet May 10, 1999 von Taiyuan Satellite Launch Center

Loading…

Nächste Überflüge (nächste 24 Stunden)

TLE

AktuellSource: Space-Track

Epoche: Sep 14, 2026, 01:45 UTC

1 29843U 99025EM  26257.07330166  .00000513  00000-0  18411-3 0  9996
2 29843  99.0141 110.2297 0190922 212.8003 302.2166 14.28961001 22032

Verfolge FENGYUN 1C DEB in Echtzeit mit AllMySat

Download on the App Store